Flag for Brazil Weather past 2 weeks in Porto Alegre, Rio Grande do Sul, Brazil

Now
73 °F

Light rain. Fog.


Feels Like: 68 °F
Forecast: 68 / 83 °F
Wind: 5 mph from South

Location: Porto Alegre Aero-Porto

Current Time: Dec 21, 2014 at 2:47:01 PM

Latest Report: Dec 21, 2014 at 2:00 PM


Visibility: 2 mi

Pressure: 29.53 "Hg

Humidity: 100%

Dew point: 73 °F

Location of Porto AlegreLocation

Historic Weather in Porto Alegre — Graph

°F

Porto Alegre temperature yesterday

Maximum temperature yesterday: 95 °F (at 4:00 PM)
Minimum temperature yesterday: 68 °F (at 6:00 AM)
Average temperature yesterday: 80 °F

Past Weeks' High & Low Weather Summary

 TemperatureHumidityPressure
High97 °F (Dec 8, 3:00 PM)100% (Dec 10, 7:00 AM)30.07 "Hg (Dec 10, 7:00 AM)
Low37 °F (Dec 11, 12:00 AM)31% (Dec 6, 4:00 PM)29.47 "Hg (Dec 20, 7:00 PM)
Average77 °F75%29.84 "Hg
* Reported Dec 6 1:00 PM — Dec 21 1:00 PM, Porto Alegre, Weather by CustomWeather, © 2014

Note: Actual official high and low records may vary slightly from our data, if they occured in-between our weather recording intervals... More about our weather records

Advertising

Porto Alegre weather history for previous 24 hours

 ConditionsComfort  
Time TempWeatherWind HumidityBarometerVisibility
1:00 PM
Dec 21
73 °FRain. Mostly cloudy.3 mph100%29.56 "Hg2 mi
12:00 PM75 °FLight rain. Broken clouds.8 mph94%29.56 "HgN/A
11:00 AM73 °FBroken clouds.12 mph94%29.56 "HgN/A
10:00 AM73 °FBroken clouds.14 mph94%29.56 "HgN/A
9:00 AM72 °FBroken clouds.8 mph94%29.62 "HgN/A
8:00 AM72 °FLight rain. Cloudy.13 mph94%29.59 "Hg5 mi
7:00 AM72 °FLight rain. Mostly cloudy.7 mph94%29.62 "Hg5 mi
6:00 AM72 °FLight rain. Passing clouds.7 mph94%29.65 "Hg5 mi
5:00 AM70 °FThunderstorms. Mostly cloudy.8 mph100%N/A5 mi
4:00 AM70 °FThunderstorms. Mostly cloudy.8 mph100%N/A5 mi
3:00 AM70 °FThunderstorms. Mostly cloudy.5 mph100%N/A5 mi
2:00 AM70 °FThunderstorms. Mostly cloudy.10 mph100%N/A4 mi
1:00 AM70 °FThunderstorms. Mostly cloudy.15 mph100%N/A4 mi
12:00 AM72 °FThunderstorms. Mostly cloudy.9 mph94%N/A4 mi
11:00 PM
Dec 20
72 °FThunderstorms. Fog.6 mph94%29.77 "Hg2 mi
10:00 PM72 °FThunderstorms. Fog.5 mph94%29.74 "Hg2 mi
9:00 PMN/AStrong thunderstorms.15 mphN/AN/A2 mi
8:00 PM84 °FThundershowers. Partly sunny.18 mph62%N/AN/A
7:00 PM86 °FPassing clouds.22 mph55%29.47 "HgN/A
6:00 PM90 °FPassing clouds.18 mph55%29.50 "HgN/A
5:00 PM91 °FPassing clouds.17 mph52%29.53 "HgN/A
4:00 PM95 °FPassing clouds.2 mph41%29.56 "HgN/A
3:00 PM93 °FPassing clouds.6 mph44%29.59 "HgN/A
2:00 PM93 °FPassing clouds.3 mph47%29.62 "HgN/A
Weather by CustomWeather, © 2014

See weather overviewHow to use our weather pages